Regional Weather Roundup
Issued by NWS Kansas City/Pleasant Hill, MO

Home | Current Version | Previous Version | Text Only | Print | Product List | Glossary On
Versions: 1 2 3 4 5 6 7 8 9 10 11 12 13 14 15 16 17 18 19 20 21 22 23 24 25 26 27 28
000
ASUS43 KEAX 271410
RWREAX

WEATHER ROUNDUP FOR EASTERN KANSAS AND NORTHWEST MISSOURI
NATIONAL WEATHER SERVICE KANSAS CITY/PLEASANT HILL MO
900 AM CDT THU JUL 27 2017

KSZ040-057-103>105-MOZ028-029-037-043-271500-
...KANSAS CITY METROPOLITAN AREA...

CITY           SKY/WX    TMP DP  RH WIND       PRES   REMARKS
K.C. INTL      DRIZZLE   76  74  93 NE9       29.99R
K.C. DOWNTOWN  CLOUDY   N/A N/A N/A CALM      29.97R
LEES SUMMIT    CLOUDY    75  75 100 W3        29.99R
OLATHE - IXD   CLOUDY    75  74  96 CALM      30.00R FOG
OLATHE - OJC   CLOUDY    74  74 100 CALM      29.99R
LAWRENCE       CLOUDY    76  75  97 NE5       30.00R FOG

$$

MOZ001>008-011>017-020>025-030>033-038>040-044>046-053-054-271500-
...NORTHERN AND CENTRAL MISSOURI...

CITY           SKY/WX    TMP DP  RH WIND       PRES   REMARKS
ST. JOSEPH     CLOUDY    75  73  93 NE10      29.99R
MOSBY          CLOUDY    73  73 100 CALM      29.97S FOG
WARRENSBURG    CLOUDY    72  72 100 SW3       29.98R
WHITEMAN AFB   CLOUDY    74  74  99 W10       29.97R
CLINTON        LGT RAIN  73  73 100 SW7       29.98R
SEDALIA        CLOUDY    77  76  96 SW9       29.98S
WARSAW         NOT AVBL
CHILLICOTHE      N/A     77  75  93 N6        29.98S
KIRKSVILLE     CLOUDY    76  73  91 N7        29.98S

$$

MOZ041-047>049-056>058-063>065-088>090-097-271500-
...EASTERN AND SOUTHERN MISSOURI...

CITY           SKY/WX    TMP DP  RH WIND       PRES   REMARKS
ST. LOUIS INTL LGT RAIN  78  74  87 W5        29.98S
SPIRIT OF STL  LGT RAIN  77  77 100 S3        29.96S
COLUMBIA       LGT RAIN  74  73  97 CALM      29.98R FOG
JEFFERSON CITY LGT RAIN  75  75 100 CALM      29.96F
ROLLA          LGT RAIN  72  72 100 SW8       30.00F FOG
OSAGE BEACH    RAIN      73  72  96 SW5       29.99R FOG
SPRINGFIELD    HVY RAIN  73  73 100 W3        30.06R FOG
BRANSON        LGT RAIN  75  72  88 CALM      30.05R
JOPLIN         CLOUDY    77  75  93 CALM      30.02R
WEST PLAINS    LGT RAIN  75  72  90 W5        30.06R FOG

$$

IAZ060-094-KSZ022-034>040-054-083-096-NEZ052-066-093-271500-
...KANSAS...SOUTHEAST NEBRASKA AND IOWA...

CITY           SKY/WX    TMP DP  RH WIND       PRES   REMARKS
TOPEKA         CLOUDY    76  75  97 N8        30.00R
MANHATTAN      CLOUDY    76  72  87 NE10      30.01R
EMPORIA        CLOUDY    75  73  93 NE10      29.99R
CHANUTE        CLOUDY    79  74  84 CALM      29.99R
WICHITA        CLOUDY    78  75  90 NW6       29.97R
OMAHA          MOSUNNY   72  65  78 N9        30.06R
LINCOLN        SUNNY     73  65  75 NE13      30.07S
FALLS CITY     CLOUDY    76  71  85 NE8       30.02R
LAMONI         CLOUDY    75  71  87 N9        30.01S
DES MOINES     MOSUNNY   76  68  76 N12       30.01R

$$





USA.gov is the U.S. government's official web portal to all federal, state and local government web resources and services.